Location: Mannheim
(49.4880°N, 8.4650°E)
Time: 05:20:44
(UTC+02:00)

ACS3 Solar Sail - Pass Details

Date: 29 September 2024
Orbit: 963 x 1036 km, 97.4° (Epoch: 04 October)

Event Time Altitude Azimuth Distance (km) Brightness Sun altitude
Exits shadow 22:17:28 20° 209° (SSW) 2,173 3.5 -29.9°
Maximum altitude 22:21:22 39° 266° (W) 1,495 3.0 -30.5°
Drops below altitude 10° 22:27:19 10° 335° (NNW) 2,826 4.9 -31.2°
Sets 22:30:01 0° 343° (NNW) 3,773 5.6 -31.6°
